Location: Newark
(49.3808°N, 3.1844°E)
Time: 17:11:31
(UTC+00:00)

Envisat - Visible Passes

Search period start: 17 September 2019 00:00
Search period end: 27 September 2019 00:00
Orbit: 764 x 766 km, 98.1° (Epoch: 17 September)

Date Brightness Start Highest point End Pass type
(mag) Time Alt. Az. Time Alt. Az. Time Alt. Az.
17 Sep 6.3 19:40:54 10° W 19:42:17 11° W 19:43:41 10° WNW visible
18 Sep 5.6 19:01:02 10° SW 19:05:00 23° W 19:09:01 10° NW visible
19 Sep 4.3 18:23:05 10° S 18:27:57 45° W 18:32:51 10° NNW visible
20 Sep 6.0 19:28:16 10° WSW 19:30:52 14° W 19:33:27 10° NW visible
21 Sep 5.3 18:49:19 10° SSW 18:53:39 28° W 18:58:01 10° NW visible
22 Sep 3.9 18:11:40 10° S 18:16:39 56° W 18:21:41 10° NNW visible
23 Sep 5.9 19:16:08 10° SW 19:19:26 17° W 19:22:46 10° NW visible
24 Sep 4.9 18:37:42 10° SSW 18:42:18 34° W 18:46:56 10° NNW visible
26 Sep 5.7 19:04:14 10° SW 19:08:03 21° W 19:11:54 10° NW visible
